Location: Tel Aviv
(32.0670°N, 34.7670°E)
Time: 13:16:55
(UTC+03:00)

Transit 2A - Pass Details

Date: 28 January 2022
Orbit: 598 x 960 km, 66.7° (Epoch: 20 May)

Event Time Altitude Azimuth Distance (km) Brightness Sun altitude
Rises 09:44:22 0° 201° (SSW) 3,420 9.8 31.0°
Reaches altitude 10° 09:46:45 10° 201° (SSW) 2,532 9.2 31.3°
Maximum altitude 09:52:43 83° 114° (ESE) 940 7.2 32.0°
Drops below altitude 10° 09:59:04 10° 27° (NNE) 2,690 8.6 32.7°
Sets 10:01:40 0° 27° (NNE) 3,646 9.2 33.0°
